www.pogodaiklimat.ru

Погода и климат >> Архив погоды >> Мексика >> Лорето


ПОГОДА в Лорето

  • Прогноз погоды в Лорето
  • Монитор погоды в Лорето

АРХИВ ПОГОДЫ в Лорето

Время (UTC), дата Ветер
(напр.,м/с)
 
Видим.   Явления Облачность Т
(С)
Тd
(С)
f
(%)
Тe
(С)
Тes
(С)
Комфортность P
(гПа)
Po
(гПа)
Тmin
(С)
Tmax
(С)
R
(мм)
R24
(мм)
S
(см)
18 12.06 ЮВ 1 20 км 5/0
[Cs]
+38.1 +16.6 28 +40 +61 опасность
солнечного
удара
1011.4 1010.7 +27.7 +38.8
21 12.06 СВ 2 20 км 6/0
[Cs]
+37.4 +22.8 43 +47 +63 опасность
перегрева
1009.3 1008.5
00 13.06 ЮВ 2 20 км 5/0
[Cs]
+35.4 +17.5 35 +39 +43 очень
душно
1007.5 1006.8 +27.7 +41.0
03 13.06 штиль 0 20 км 5/0
[Cs]
+32.4 +20.6 50 +39 +39 очень
душно
1007.0 1006.2
12 13.06 штиль 0 20 км 5/0
[Cs]
+28.2 +19.2 58 +34 +34 очень
душно
1008.3 1007.5 +28.0 +41.0
15 13.06 Ю 1 20 км 5/0
[Ac trans Ci]
+33.5 +14.9 33 +35 +41 душно 1009.5 1008.7
18 13.06 Ю 4 20 км 1/0
[Ci fib]
+34.3 +21.0 46 +42 +55 опасность
перегрева
1010.7 1010.0 +27.5 +36.0
21 13.06 Ю 4 20 км 1/1 1500 м
[Cu hum]
+34.7 +22.5 49 +44 +56 опасность
перегрева
1009.7 1008.9
00 14.06 ЮВ 3 20 км ясно +34.8 +21.5 46 +43 +47 опасность
перегрева
1007.9 1007.1 +27.5 +36.3
03 14.06 ЮВ 2 20 км ясно +28.9 +24.3 76 +40 +40 очень
душно
1007.8 1007.0
12 14.06 штиль 0 20 км ясно +27.0 +23.7 82 +37 +37 очень
душно
1009.4 1008.6 +26.4 +36.3
15 14.06 Ю 2 20 км ясно +29.4 +21.2 61 +37 +43 очень
душно
1011.7 1010.9
18 14.06 ЮВ 4 20 км дымка 1/1 1000 м
[Sc]
+31.0 +22.7 61 +41 +53 опасность
перегрева
1011.9 1011.1 +26.0 +31.5
21 14.06 ЮВ 3 20 км ясно +32.4 +13.1 31 +33 +49 жарко 1010.7 1009.9
00 15.06 Ю 3 20 км ясно +31.5 +23.3 62 +42 +46 опасность
перегрева
1009.0 1008.2 +26.0 +32.8
03 15.06 Ю 2 20 км ясно +28.0 +22.1 70 +36 +36 очень
душно
1008.6 1007.8
06 15.06 штиль 0 20 км ясно +27.2 +21.9 73 +35 +35 очень
душно
1009.9 1009.1 +26.0 +32.8
09 15.06 штиль 0 20 км ясно +25.5 +19.9 71 +31 +31 очень
душно
1009.2 1008.5
12 15.06 штиль 0 20 км ясно +24.0 +18.0 69 +28 +28 душно 1009.3 1008.5 +23.5 +32.8
15 15.06 штиль 0 20 км ясно +28.2 +17.2 51 +32 +40 душно 1010.9 1010.1
18 15.06 ЮВ 3 20 км ясно +32.5 +19.5 46 +38 +55 опасность
солнечного
удара
1011.1 1010.3 +23.0 +32.6
21 15.06 ЮВ 3 20 км ясно +32.6 +19.1 45 +38 +54 опасность
солнечного
удара
1009.6 1008.8
00 16.06 Ю 3 20 км ясно +32.6 +19.3 45 +38 +42 очень
душно
1008.0 1007.3 +23.0 +34.0
03 16.06 Ю 1 20 км ясно +28.2 +21.1 65 +35 +35 очень
душно
1008.3 1007.5
06 16.06 штиль 0 20 км ясно +26.9 +19.8 65 +33 +33 очень
душно
1008.9 1008.1 +23.0 +34.0
09 16.06 штиль 0 20 км ясно +24.5 +18.4 69 +29 +29 душно 1007.9 1006.8
12 16.06 штиль 0 20 км ясно +22.6 +18.0 75 +28 +28 душно 1008.3 1007.5 +22.6 +34.0
15 16.06 штиль 0 20 км ясно +28.2 +19.2 58 +34 +41 очень
душно
1009.8 1009.0
18 16.06 Ю 1 20 км ясно +33.9 +18.5 40 +38 +62 опасность
солнечного
удара
1009.0 1008.2 +22.0 +34.2
21 16.06 ЮВ 3 20 км ясно +32.2 +20.3 49 +39 +55 опасность
солнечного
удара
1008.2 1007.4
00 17.06 Ю 3 20 км ясно +32.0 +20.7 51 +39 +43 очень
душно
1007.3 1006.5 +22.0 +35.3
03 17.06 штиль 0 20 км ясно +28.3 +21.7 67 +36 +36 очень
душно
1008.6 1007.8
06 17.06 штиль 0 20 км 1/1
[Cu hum Ac trans]
+28.4 +18.8 56 +34 +34 очень
душно
1008.0 1007.3 +22.0 +35.3
09 17.06 СЗ 1 20 км ясно +28.1 +5.2 23 +27 +27 жарко 1007.3 1006.5
12 17.06 штиль 0 20 км ясно +25.2 +14.4 51 +28 +28 жарко 1008.5 1007.8 +25.0 +35.3
15 17.06 ЮВ 1 20 км ясно +29.5 +16.3 45 +33 +39 душно 1010.4 1009.6
18 17.06 В 1 20 км ясно +34.4 +14.3 30 +36 +59 опасность
солнечного
удара
1010.0 1009.2 +24.0 +34.8
21 17.06 ЮВ 3 20 км 1/0
[Ci fib]
+33.1 +17.8 40 +37 +53 опасность
солнечного
удара
1008.7 1007.9
00 18.06 Ю 3 20 км 1/0
[As trans]
+32.7 +17.3 40 +36 +40 очень
душно
1007.4 1006.6 +24.0 +35.6
03 18.06 Ю 1 20 км 4/0
[Ci]
+28.5 +19.7 59 +34 +34 очень
душно
1008.0 1007.2
12 18.06 С 1 20 км 1/0
[As trans]
+25.5 +22.0 81 +33 +33 очень
душно
1009.7 1008.9 +25.0 +35.6
15 18.06 штиль 0 20 км 3/0
[Cs]
+28.3 +22.0 69 +37 +44 очень
душно
1011.8 1011.0
18 18.06 СВ 2 20 км 3/0
[Cs]
+35.6 +14.8 29 +37 +56 опасность
солнечного
удара
1011.7 1010.9 +24.5 +35.8
21 18.06 СВ 2 20 км 3/0
[Cs]
+35.8 +17.4 34 +39 +57 опасность
солнечного
удара
1011.2 1010.4
00 19.06 Ю 2 20 км 4/0
[Ci]
+35.5 +13.6 27 +36 +41 очень
жарко
1009.6 1008.9 +24.5 +37.2
03 19.06 ЮЗ 1 20 км 4/0
[Ci]
+30.2 +14.9 39 +32 +32 жарко 1010.4 1009.6
06 19.06 штиль 0 20 км 4/0 1230 м
[Cs]
+28.0 +16.9 51 +32 +32 душно 1011.6 1010.8 +24.5 +37.2
12 19.06 З 2 20 км 3/0
[Ci sp]
+28.7 -1.9 14 +26 +26 жарко 1011.0 1010.2 +27.3 +37.2

 

Местоположение метеостанции Лорето (Мексика): широта 26.02 долгота -111.30 высота над уровнем моря 7 м.

В архиве по умолчанию представлена погода в Лорето за последнюю неделю. Архивные данные за месяц целиком и за предыдущие месяцы, начиная с января 2011 года, Вы можете получить, выбрав интересующий диапазон дат из раскрывающегося списка и нажав кнопку "Ввод!".


*Определитесь, кто Вы:
робот инопланетянин человек

Внимание! Время в таблицах - всемирное. Для получения местного времени необходимо прибавить поправку, которая равна -6 ч.

Смотрите также архив погоды в соседних городах и на ближайших метеорологических станциях:

Погода в Сьюдад-Конститусьоне (Мексика) (126 км)
Погода в Санта-Розалии (Мексика) (169 км)
Погода в Сьюдад-Обрегоне (Мексика) (211 км)
Погода в Гуаймасе (Мексика) (215 км)
Погода в Эмпальме (Мексика) (223 км)
Погода в Ла-Пасе (Мексика) (229 км)
Погода в Чойсе (Мексика) (319 км)
Погода в Эрмосильо Магна (Мексика) (342 км)
Погода в Эрмосильо (Мексика) (342 км)
Погода в Кульякане (Мексика) (415 км)

Пояснения к столбцам:

Ветер - указаны скорость ветра в м/с - средняя за 10 мин, порывы в срок и между сроками (в фигурных скобках) и направление, откуда дует ветер: С - северный, СВ - северо-восточный, В - восточный, ЮВ - юго-восточный, Ю - южный, ЮЗ - юго-западный, З - западный, СЗ - северо-западный.
Видимость - горизонтальная дальность видимости в метрах или километрах. При видимости от 1 до 10 км при отсутствии осадков обычно наблюдается дымка, при ухудшении видимости до 1 км и менее - туман. В сухую погоду видимость может ухудшаться дымом, пылью или мглою.
Явления - указаны атмосферные явления, наблюдавшиеся в срок или в последний час перед сроком; фигурными скобками обозначены явления, наблюдавшиеся между сроками (за 1-3 часа до срока); квадратными скобками обозначены град или гололедные отложения с указанием их диаметра в мм.
Облачность - указаны через наклонную черту общая и нижняя облачность в баллах и высота нижней границы облаков в метрах; квадратными скобками обозначены формы облаков: Ci - перистые, Cs - перисто-слоистые, Cc - перисто-кучевые, Ac - высококучевые, As - высокослоистые, Sc - слоисто-кучевые, Ns - слоисто-дождевые, Cu - кучевые, Cb - кучево-дождевые. Подробнее классификацию облаков см. в Атласе облаков (PDF).
T - Температура воздуха - температура, измеренная на высоте 2 м над землей.
Td - Температура точки росы - температура, при понижении до которой содержащийся в воздухе водяной пар достигнет насыщения.
f - Относительная влажность воздуха - влажноcть воздуха, измеренная на высоте 2 м над землей.
Te - Эффективная температура - температура, которую ощущает одетый по сезону человек в тени. Характеристика душности погоды. При расчете учитывается влияние влажности воздуха и скорости ветра на теплоощущения человека.
Tes - Эффективная температура на солнце - температура, которую ощущает человек, с поправкой на солнечный нагрев. Характеристика знойности погоды. Зависит от высоты солнца над горизонтом, облачности и скорости ветра. Ночью, в пасмурную погоду, а также при ветре 12 м/с и более поправка равна нулю.
P - Атмосферное давление - приведенное к уровню моря атмосферное давление.
Po - Атмосферное давление - измеренное на уровне метеостанции атмосферное давление.
Tmin - Минимальная температура - минимум температуры воздуха на высоте 2 м над землей.
Tmax - Максимальная температура - максимум температуры воздуха на высоте 2 м над землей.
R - Количество осадков - Количество выпавших осадков за период времени, мм. При наведении курсора мыши на число - период времени, за который выпало указанное количество осадков.
R24 - Количество осадков - Количество выпавших осадков за 24 часа, мм.
S - Снежный покров - Высота снежного покрова, см. При наведении курсора мыши на число - состояние снежного покрова и степень покрытия местности в баллах.